Погода в Гёреме

Турция     38°38′39″N   34°49′50″E
темп.,
°C
ветер,
м/с
пор.,
м/с
влажн.,
%
обл.,
%
осадки,
мм/ч
давл.,
гПа
погр.,
м
7 мая, пт
пт700:00+12зсз227591 0.0 101647
03:00+11зсз22804 0.0 101721
06:00+10сз11870 0.0 101811
09:00+14св12640 0.0 1018732
12:00+18с11410 0.0 10171452
15:00+21сз123171 0.0 10151915
18:00+21сз223162 0.0 10141803
21:00+17с114627 0.0 101511
8 мая, сб
сб800:00+16юв11475 0.0 101611
03:00+14юв12495 0.0 101511
06:00+14вюв22515 0.0 101511
09:00+21юв223431 0.0 1014395
12:00+26з572279 0.0 10132026
15:00+27з81021100 0.0 10122818
18:00+25сз4628100 0.0 1011585
21:00+18вюв3458100 0.3 1014240
9 мая, вс
вс900:00+16вюв3566100 0.0 1012131
03:00+15сз346996 0.1 101263
06:00+13зсз018451 0.4 101540
09:00+16сз336798 0.4 1015746
12:00+12с7866100 0.2 1018526
15:00+12ссв3658100 0.2 1019826
18:00+11св886618 0.0 1021750
21:00+8св49690 0.0 1023450
10 мая, пн
пн1000:00+5св24701 0.0 1025140
03:00+4св22724 0.0 102541
06:00+2ссв22665 0.0 102649
09:00+7св34450 0.0 1024722
12:00+13св56290 0.0 10211234
15:00+15ссв66260 0.0 10181428
18:00+14ссв76310 0.0 10171264
21:00+9св510460 0.0 1019418
11 мая, вт
вт1100:00+7св23570 0.0 102055
03:00+5св22610 0.0 102018
06:00+4ссв11590 0.0 102115
09:00+8св22340 0.0 1020606
12:00+14ссв22230 0.0 10161052
15:00+18ссв22210 0.0 10141503
18:00+18ссв33260 0.0 10131454
21:00+13ссв32430 0.0 101322